IRIDIUM 82

Last updated on Wed Nov 29 2017 00:19:03 GMT+0000 (Coordinated Universal Time)

1 25467U 98051A 17332.47427195 .00000809 00000-0 58671-4 0 9990 2 25467 86.3983 305.5561 0182829 164.8372 195.8441 14.89608106 11297
UTC large
Height (km)
Speed (km/s)
/
Latitude / Longitude
Inclination (degrees)
Orbital Period (minutes)
Azimuth
Elevation
Range (km)
Doppler Factor

Next 0 passes for location: London (51.5072 / 0.1276)

Sorry there are no passes over London.